• In Uzbekistan
  • List of Countries
  • For 7 days
  • Water Temperature
  • Satellite Maps
  • Weather Map
  • Weather Widgets
  • user-avatar
    Login

    Hourly Weather Balarampur

    Today, 19 October, Thursday

    Time Temperature Precipitation Wind Pressure Humidity
    00:00 +26°C° 0 mm 1 mps 733 mmHg 89%
    01:00 +26°C° 0 mm 1 mps 733 mmHg 90%
    02:00 +26°C° 0 mm 1 mps 732 mmHg 91%
    03:00 +26°C° 0 mm 1 mps 732 mmHg 92%
    04:00 +26°C° 0 mm 2 mps 732 mmHg 93%
    05:00 +26°C° 0 mm 2 mps 732 mmHg 93%
    06:00 +25°C° 0 mm 1 mps 732 mmHg 95%
    07:00 +27°C° 0 mm 2 mps 733 mmHg 89%
    08:00 +28°C° 0 mm 3 mps 733 mmHg 83%
    09:00 +29°C° 0 mm 4 mps 734 mmHg 78%
    10:00 +30°C° 0.2 mm 5 mps 733 mmHg 73%
    11:00 +32°C° 0.2 mm 5 mps 733 mmHg 69%
    12:00 +33°C° 0.2 mm 6 mps 733 mmHg 64%
    13:00 +33°C° 1.2 mm 6 mps 732 mmHg 66%
    14:00 +33°C° 1.2 mm 6 mps 731 mmHg 67%
    15:00 +33°C° 1.2 mm 6 mps 731 mmHg 69%
    16:00 +30°C° 2.3 mm 5 mps 731 mmHg 75%
    17:00 +29°C° 2.3 mm 5 mps 731 mmHg 82%
    18:00 +27°C° 2.3 mm 4 mps 731 mmHg 88%
    19:00 +27°C° 0.5 mm 4 mps 731 mmHg 89%
    20:00 +27°C° 0.5 mm 4 mps 732 mmHg 90%
    21:00 +27°C° 0.5 mm 4 mps 732 mmHg 91%
    22:00 +27°C° 0.2 mm 4 mps 732 mmHg 91%
    23:00 +26°C° 0.2 mm 4 mps 732 mmHg 92%

    Tomorrow, 20 October, Friday

    Time Temperature Precipitation Wind Pressure Humidity
    00:00 +26°C° 0.2 mm 4 mps 731 mmHg 93%
    01:00 +26°C° 0.7 mm 5 mps 731 mmHg 93%
    02:00 +26°C° 0.7 mm 5 mps 730 mmHg 93%
    03:00 +26°C° 0.7 mm 5 mps 730 mmHg 93%
    04:00 +26°C° 0.4 mm 5 mps 730 mmHg 94%
    05:00 +26°C° 0.4 mm 5 mps 730 mmHg 94%
    06:00 +26°C° 0.4 mm 6 mps 729 mmHg 94%
    07:00 +26°C° 0.2 mm 6 mps 730 mmHg 93%
    08:00 +27°C° 0.2 mm 6 mps 730 mmHg 92%
    09:00 +27°C° 0.2 mm 6 mps 731 mmHg 91%
    10:00 +27°C° 0.7 mm 6 mps 730 mmHg 90%
    11:00 +27°C° 0.7 mm 6 mps 730 mmHg 89%
    12:00 +28°C° 0.7 mm 5 mps 730 mmHg 88%
    13:00 +28°C° 2.3 mm 5 mps 729 mmHg 89%
    14:00 +27°C° 2.3 mm 5 mps 728 mmHg 90%
    15:00 +27°C° 2.3 mm 4 mps 728 mmHg 91%
    16:00 +27°C° 3.3 mm 4 mps 728 mmHg 91%
    17:00 +27°C° 3.3 mm 4 mps 728 mmHg 92%
    18:00 +27°C° 3.3 mm 3 mps 728 mmHg 93%
    19:00 +26°C° 1.9 mm 3 mps 728 mmHg 93%
    20:00 +26°C° 1.9 mm 3 mps 729 mmHg 94%
    21:00 +26°C° 1.9 mm 2 mps 729 mmHg 95%
    22:00 +26°C° 0.8 mm 2 mps 729 mmHg 95%
    23:00 +26°C° 0.8 mm 2 mps 729 mmHg 95%

    Day after tomorrow, 21 October, Saturday

    Time Temperature Precipitation Wind Pressure Humidity
    00:00 +26°C° 0.8 mm 2 mps 728 mmHg 95%
    01:00 +26°C° 0.7 mm 2 mps 728 mmHg 95%
    02:00 +26°C° 0.7 mm 2 mps 728 mmHg 95%
    03:00 +26°C° 0.7 mm 2 mps 727 mmHg 96%
    04:00 +26°C° 0.5 mm 2 mps 728 mmHg 96%
    05:00 +26°C° 0.5 mm 2 mps 728 mmHg 96%
    06:00 +25°C° 0.5 mm 2 mps 728 mmHg 96%
    07:00 +26°C° 0.1 mm 2 mps 728 mmHg 94%
    08:00 +26°C° 0.1 mm 2 mps 729 mmHg 92%
    09:00 +27°C° 0.1 mm 3 mps 730 mmHg 90%
    10:00 +27°C° 0.3 mm 3 mps 729 mmHg 88%
    11:00 +28°C° 0.3 mm 4 mps 729 mmHg 86%
    12:00 +28°C° 0.3 mm 5 mps 729 mmHg 85%
    13:00 +28°C° 0.8 mm 5 mps 729 mmHg 86%
    14:00 +28°C° 0.8 mm 6 mps 728 mmHg 87%
    15:00 +27°C° 0.8 mm 6 mps 728 mmHg 88%
    16:00 +27°C° 0.1 mm 6 mps 728 mmHg 88%
    17:00 +26°C° 0.1 mm 6 mps 729 mmHg 89%
    18:00 +26°C° 0.1 mm 6 mps 729 mmHg 89%
    19:00 +25°C° 0 mm 5 mps 730 mmHg 89%
    20:00 +25°C° 0 mm 5 mps 731 mmHg 90%
    21:00 +25°C° 0 mm 5 mps 731 mmHg 90%
    22:00 +25°C° 0 mm 4 mps 732 mmHg 90%
    23:00 +23°C° 0 mm 4 mps 732 mmHg 91%

    22 October, Sunday

    Time Temperature Precipitation Wind Pressure Humidity
    00:00 +23°C° 0 mm 4 mps 732 mmHg 92%
    01:00 +23°C° 0 mm 4 mps 731 mmHg 91%
    02:00 +23°C° 0 mm 4 mps 731 mmHg 91%
    03:00 +23°C° 0 mm 4 mps 731 mmHg 91%
    04:00 +24°C° 0 mm 3 mps 731 mmHg 92%
    05:00 +22°C° 0 mm 3 mps 731 mmHg 93%
    06:00 +23°C° 0 mm 2 mps 732 mmHg 93%
    07:00 +24°C° 0 mm 3 mps 732 mmHg 89%
    08:00 +25°C° 0 mm 3 mps 733 mmHg 85%
    09:00 +26°C° 0 mm 4 mps 734 mmHg 81%
    10:00 +27°C° 0 mm 4 mps 733 mmHg 76%
    11:00 +29°C° 0 mm 4 mps 733 mmHg 71%
    12:00 +30°C° 0 mm 4 mps 733 mmHg 66%
    13:00 +32°C° 0 mm 4 mps 732 mmHg 63%
    14:00 +31°C° 0 mm 3 mps 732 mmHg 61%
    15:00 +31°C° 0 mm 3 mps 731 mmHg 59%
    16:00 +30°C° 0 mm 2 mps 731 mmHg 62%
    17:00 +29°C° 0 mm 2 mps 731 mmHg 65%
    18:00 +28°C° 0 mm 1 mps 732 mmHg 69%
    19:00 +27°C° 0 mm 1 mps 732 mmHg 71%
    20:00 +26°C° 0 mm 1 mps 733 mmHg 73%
    21:00 +26°C° 0 mm 1 mps 734 mmHg 76%
    22:00 +25°C° 0 mm 1 mps 734 mmHg 79%
    23:00 +25°C° 0 mm 1 mps 734 mmHg 82%

    23 October, Monday

    Time Temperature Precipitation Wind Pressure Humidity
    00:00 +24°C° 0 mm 1 mps 734 mmHg 85%
    01:00 +24°C° 0 mm 1 mps 733 mmHg 87%
    02:00 +21°C° 0 mm 0 mps 733 mmHg 89%
    03:00 +21°C° 0 mm 0 mps 733 mmHg 91%
    04:00 +21°C° 0 mm 0 mps 733 mmHg 91%
    05:00 +20°C° 0 mm 0 mps 733 mmHg 92%
    06:00 +20°C° 0 mm 0 mps 733 mmHg 92%
    07:00 +24°C° 0 mm 1 mps 734 mmHg 86%
    08:00 +25°C° 0 mm 1 mps 735 mmHg 80%
    09:00 +27°C° 0 mm 1 mps 735 mmHg 74%
    10:00 +28°C° 0 mm 1 mps 735 mmHg 66%
    11:00 +30°C° 0 mm 1 mps 735 mmHg 57%
    12:00 +31°C° 0 mm 2 mps 734 mmHg 49%
    13:00 +32°C° 0 mm 2 mps 734 mmHg 45%
    14:00 +32°C° 0 mm 2 mps 733 mmHg 41%
    15:00 +34°C° 0 mm 2 mps 733 mmHg 36%
    16:00 +31°C° 0 mm 2 mps 733 mmHg 40%
    17:00 +29°C° 0 mm 2 mps 733 mmHg 43%
    18:00 +27°C° 0 mm 1 mps 733 mmHg 46%
    19:00 +26°C° 0 mm 1 mps 734 mmHg 48%
    20:00 +26°C° 0 mm 1 mps 734 mmHg 50%
    21:00 +25°C° 0 mm 1 mps 735 mmHg 51%
    22:00 +24°C° 0 mm 1 mps 735 mmHg 53%
    23:00 +24°C° 0 mm 1 mps 735 mmHg 54%

    24 October, Tuesday

    Time Temperature Precipitation Wind Pressure Humidity
    00:00 +23°C° 0 mm 1 mps 735 mmHg 55%
    01:00 +23°C° 0 mm 1 mps 735 mmHg 56%
    02:00 +22°C° 0 mm 1 mps 734 mmHg 57%
    03:00 +22°C° 0 mm 1 mps 734 mmHg 58%
    04:00 +22°C° 0 mm 1 mps 735 mmHg 58%
    05:00 +21°C° 0 mm 1 mps 735 mmHg 58%
    06:00 +21°C° 0 mm 1 mps 735 mmHg 59%
    07:00 +23°C° 0 mm 1 mps 736 mmHg 56%
    08:00 +25°C° 0 mm 1 mps 736 mmHg 53%
    09:00 +27°C° 0 mm 1 mps 737 mmHg 50%
    10:00 +28°C° 0 mm 1 mps 736 mmHg 46%
    11:00 +30°C° 0 mm 1 mps 736 mmHg 42%
    12:00 +32°C° 0 mm 1 mps 736 mmHg 38%
    13:00 +32°C° 0 mm 1 mps 735 mmHg 38%
    14:00 +32°C° 0 mm 1 mps 735 mmHg 37%
    15:00 +32°C° 0 mm 2 mps 734 mmHg 36%
    16:00 +31°C° 0 mm 1 mps 734 mmHg 40%
    17:00 +29°C° 0 mm 1 mps 734 mmHg 43%
    18:00 +25°C° 0 mm 0 mps 735 mmHg 47%
    19:00 +25°C° 0 mm 0 mps 735 mmHg 49%
    20:00 +24°C° 0 mm 0 mps 736 mmHg 51%
    21:00 +23°C° 0 mm 0 mps 736 mmHg 53%
    22:00 +25°C° 0 mm 1 mps 736 mmHg 55%
    23:00 +24°C° 0 mm 1 mps 736 mmHg 58%
    Show more